GW5133 Weather Reports


time (UTC)temp
C
wind
direction
speed
KPH
gust
KPH
rain 1hr
cm
rain 24hr
cm
rain mn
cm
humidity
%
barometer
mb
20260510083131 11 124 0.0 1.6 0.00 0.00 0.00 90 1014.6
20260510082627 11 172 1.6 1.6 0.00 0.00 0.00 90 1014.5
20260510082123 11 182 3.2 3.2 0.00 0.00 0.00 91 1014.6
20260510081624 11 184 3.2 3.2 0.00 0.00 0.00 90 1014.5
20260510081120 11 119 0.0 1.6 0.00 0.00 0.00 89 1014.4
20260510080619 11 158 0.0 0.0 0.00 0.00 0.00 89 1014.5
20260510080116 11 103 1.6 3.2 0.00 0.00 0.00 90 1014.5
20260510075613 11 139 0.0 3.2 0.00 0.00 0.00 91 1014.4
20260510075110 11 199 0.0 3.2 0.00 0.00 0.00 90 1014.4
20260510074607 11 172 0.0 1.6 0.00 0.00 0.00 91 1014.4
20260510074103 11 184 0.0 1.6 0.00 0.00 0.00 92 1014.5
20260510073559 11 149 0.0 3.2 0.00 0.00 0.00 92 1014.4
20260510073056 10 87 0.0 1.6 0.00 0.00 0.00 92 1014.2
20260510072553 10 73 0.0 1.6 0.00 0.00 0.00 93 1014.5
20260510072048 10 138 0.0 0.0 0.00 0.00 0.00 93 1014.6
20260510071545 10 129 1.6 1.6 0.00 0.00 0.00 93 1014.5
20260510071043 10 127 0.0 1.6 0.00 0.00 0.00 93 1014.5
20260510070539 10 127 0.0 1.6 0.00 0.00 0.00 93 1014.6
20260510070036 10 126 0.0 1.6 0.00 0.00 0.00 92 1014.7
20260510065533 10 121 0.0 1.6 0.00 0.00 0.00 92 1014.4
20260510065029 10 182 1.6 1.6 0.00 0.00 0.00 93 1014.4
20260510064526 10 160 0.0 3.2 0.00 0.00 0.00 92 1014.4
20260510064022 10 152 1.6 1.6 0.00 0.00 0.00 92 1014.6
20260510063519 10 153 0.0 1.6 0.00 0.00 0.00 91 1014.6
20260510063017 10 163 0.0 3.2 0.00 0.00 0.00 91 1014.6
20260510062512 10 127 1.6 3.2 0.00 0.00 0.00 92 1014.5
20260510062007 10 146 1.6 1.6 0.00 0.00 0.00 92 1014.5
20260510061505 10 139 0.0 0.0 0.00 0.00 0.00 92 1014.7
20260510061001 10 139 0.0 1.6 0.00 0.00 0.00 91 1014.6
20260510060458 10 138 0.0 1.6 0.00 0.00 0.00 91 1014.4
20260510055953 10 137 1.6 1.6 0.00 0.00 0.00 91 1014.7
20260510055449 10 144 1.6 1.6 0.00 0.00 0.00 90 1014.6
20260510054948 10 124 1.6 1.6 0.00 0.00 0.00 91 1014.8
20260510054443 10 133 1.6 3.2 0.00 0.00 0.00 91 1014.9
20260510053938 10 115 0.0 1.6 0.00 0.00 0.00 91 1014.9
20260510053434 10 153 1.6 1.6 0.00 0.00 0.00 90 1015.1
20260510052930 10 113 0.0 1.6 0.00 0.00 0.00 90 1014.9
20260510052426 10 112 1.6 1.6 0.00 0.00 0.00 90 1015.0
20260510051922 10 133 0.0 3.2 0.00 0.00 0.00 90 1014.9
20260510051419 10 114 1.6 1.6 0.00 0.00 0.00 90 1015.1
20260510050915 10 124 1.6 1.6 0.00 0.00 0.00 90 1015.1
20260510050412 10 151 0.0 1.6 0.00 0.00 0.00 90 1015.0
20260510045909 10 151 1.6 1.6 0.00 0.00 0.00 91 1015.1
20260510045406 10 151 0.0 1.6 0.00 0.00 0.00 91 1014.9
20260510044903 10 141 0.0 1.6 0.00 0.00 0.00 92 1015.1
20260510044400 10 144 0.0 1.6 0.00 0.00 0.00 92 1015.1
20260510043857 10 136 1.6 1.6 0.00 0.00 0.00 92 1015.0
20260510043352 10 153 0.0 0.0 0.00 0.00 0.00 91 1015.0
20260510042851 10 153 0.0 0.0 0.00 0.00 0.00 91 1015.0
20260510042346 10 136 0.0 0.0 0.00 0.00 0.00 90 1014.8
20260510041843 10 136 0.0 0.0 0.00 0.00 0.00 91 1014.7
20260510041340 10 136 0.0 0.0 0.00 0.00 0.00 91 1014.8
20260510040838 10 136 0.0 0.0 0.00 0.00 0.00 91 1014.6
20260510040334 10 136 0.0 0.0 0.00 0.00 0.00 90 1014.7
20260510035829 10 136 0.0 0.0 0.00 0.00 0.00 89 1014.5
20260510035325 10 137 0.0 0.0 0.00 0.00 0.00 89 1014.4
20260510034821 11 113 1.6 1.6 0.00 0.00 0.00 88 1014.4
20260510034319 11 133 0.0 0.0 0.00 0.00 0.00 88 1014.4
20260510033815 11 120 0.0 1.6 0.00 0.00 0.00 88 1014.6
20260510033313 10 125 0.0 1.6 0.00 0.00 0.00 90 1014.4
20260510032809 10 122 0.0 0.0 0.00 0.00 0.00 90 1014.5
20260510032306 10 148 0.0 0.0 0.00 0.00 0.00 90 1014.4
20260510031801 10 148 0.0 0.0 0.00 0.00 0.00 89 1014.4
20260510031258 10 148 0.0 1.6 0.00 0.00 0.00 89 1014.3
20260510030756 10 148 0.0 1.6 0.00 0.00 0.00 89 1014.2
20260510030254 10 145 0.0 1.6 0.00 0.00 0.00 89 1014.2
20260510025751 10 136 0.0 0.0 0.00 0.00 0.00 89 1014.1
20260510025249 11 136 0.0 1.6 0.00 0.00 0.00 87 1014.2
20260510024745 11 138 0.0 1.6 0.00 0.00 0.00 88 1014.2
20260510024242 11 138 0.0 1.6 0.00 0.00 0.00 87 1014.0
20260510023738 11 139 0.0 1.6 0.00 0.00 0.00 87 1014.2
20260510023235 11 133 1.6 1.6 0.00 0.00 0.00 87 1014.2
20260510022731 11 129 0.0 1.6 0.00 0.00 0.00 87 1014.1
20260510022231 11 125 0.0 1.6 0.00 0.00 0.00 87 1014.0
20260510021726 11 146 0.0 0.0 0.00 0.00 0.00 87 1014.1
20260510021224 11 146 0.0 1.6 0.00 0.00 0.00 86 1014.1
20260510020719 11 139 1.6 3.2 0.00 0.00 0.00 84 1013.8
20260510020219 11 132 0.0 0.0 0.00 0.00 0.00 85 1013.8
20260510015715 11 131 1.6 1.6 0.00 0.00 0.00 85 1013.8
20260510015212 11 124 0.0 1.6 0.00 0.00 0.00 85 1013.6
20260510014707 11 134 0.0 1.6 0.00 0.00 0.00 84 1013.5
20260510014206 12 126 0.0 1.6 0.00 0.00 0.00 83 1013.6
20260510013705 12 129 0.0 1.6 0.00 0.00 0.00 83 1013.4
20260510013201 12 126 0.0 0.0 0.00 0.00 0.00 83 1013.4
20260510012701 12 117 0.0 0.0 0.00 0.00 0.00 83 1013.3
20260510012157 12 111 0.0 0.0 0.00 0.00 0.00 83 1013.1
20260510011652 12 124 0.0 1.6 0.00 0.00 0.00 81 1013.2
20260510011148 12 107 1.6 1.6 0.00 0.00 0.00 80 1013.1
20260510010644 12 119 0.0 1.6 0.00 0.00 0.00 80 1013.1
20260510010142 13 118 0.0 0.0 0.00 0.00 0.00 78 1013.1
20260510005637 13 116 0.0 0.0 0.00 0.00 0.00 79 1012.9
20260510005134 13 116 0.0 0.0 0.00 0.00 0.00 78 1012.8
20260510004633 13 129 0.0 0.0 0.00 0.00 0.00 77 1012.4
20260510004131 13 126 0.0 1.6 0.00 0.00 0.00 77 1012.6
20260510003627 13 145 0.0 0.0 0.00 0.00 0.00 77 1012.3
20260510003123 13 136 1.6 1.6 0.00 0.00 0.00 76 1012.4
20260510002623 13 155 0.0 0.0 0.00 0.00 0.00 76 1012.4
20260510002120 13 143 0.0 1.6 0.00 0.00 0.00 75 1012.2
20260510001617 14 220 0.0 1.6 0.00 0.00 0.00 74 1012.2
20260510001116 14 153 0.0 1.6 0.00 0.00 0.00 73 1012.2
20260510000616 15 127 0.0 1.6 0.00 0.00 0.00 72 1012.0
20260510000114 15 186 1.6 3.2 0.00 0.00 0.00 72 1012.3
20260509235610 15 252 1.6 3.2 0.00 0.00 0.00 68 1012.3
20260509235107 16 227 0.0 1.6 0.00 0.00 0.00 69 1012.0
20260509234603 16 241 3.2 3.2 0.00 0.00 0.00 64 1012.2
20260509234101 16 255 3.2 4.8 0.00 0.00 0.00 67 1012.0
20260509233558 16 205 3.2 3.2 0.00 0.00 0.00 69 1012.0
20260509233055 16 214 3.2 4.8 0.00 0.00 0.00 64 1012.0
20260509232551 16 238 1.6 3.2 0.00 0.00 0.00 66 1012.0
20260509232048 16 232 1.6 3.2 0.00 0.00 0.00 63 1012.0
20260509231545 17 242 1.6 3.2 0.00 0.00 0.00 62 1012.3
20260509231043 17 250 3.2 4.8 0.00 0.00 0.00 61 1012.0
20260509230539 17 233 4.8 6.4 0.00 0.00 0.00 62 1011.9
20260509230037 17 245 1.6 4.8 0.00 0.00 0.00 60 1012.2
20260509225532 17 249 4.8 6.4 0.00 0.00 0.00 60 1012.2
20260509225027 17 249 1.6 6.4 0.00 0.00 0.00 59 1012.2
20260509224523 17 244 4.8 6.4 0.00 0.00 0.00 59 1012.3
20260509224020 18 264 3.2 3.2 0.00 0.00 0.00 59 1012.4
20260509223517 18 203 4.8 6.4 0.00 0.00 0.00 58 1012.3
20260509223015 18 245 6.4 6.4 0.00 0.00 0.00 58 1012.4
20260509222511 18 208 6.4 9.7 0.00 0.00 0.00 57 1012.5
20260509222006 17 278 3.2 6.4 0.00 0.00 0.00 60 1012.6
20260509221502 17 267 8.0 9.7 0.00 0.00 0.00 57 1012.6
20260509220958 18 242 8.0 9.7 0.00 0.00 0.00 57 1012.4
20260509220455 18 253 4.8 4.8 0.00 0.00 0.00 58 1012.4
20260509215950 18 273 3.2 9.7 0.00 0.00 0.00 59 1012.5
20260509215446 18 253 3.2 4.8 0.00 0.00 0.00 59 1012.5
20260509214944 18 234 0.0 4.8 0.00 0.00 0.00 57 1012.7
20260509214441 17 241 4.8 9.7 0.00 0.00 0.00 58 1012.6
20260509213938 17 225 3.2 9.7 0.00 0.00 0.00 58 1012.5
20260509213433 17 258 6.4 6.4 0.00 0.00 0.00 58 1012.5
20260509212931 17 235 3.2 6.4 0.00 0.00 0.00 59 1012.4
20260509212429 17 254 4.8 6.4 0.00 0.00 0.00 57 1012.6
20260509211924 17 224 4.8 4.8 0.00 0.00 0.00 59 1012.4
20260509211420 17 219 6.4 11.3 0.00 0.00 0.00 57 1012.3
20260509210917 18 261 4.8 4.8 0.00 0.00 0.00 59 1012.5
20260509210414 17 233 4.8 9.7 0.00 0.00 0.00 56 1012.0
20260509205910 17 259 4.8 11.3 0.00 0.00 0.00 56 1012.2
20260509205409 17 244 3.2 9.7 0.00 0.00 0.00 57 1012.2
20260509204906 17 224 4.8 9.7 0.00 0.00 0.00 58 1012.0
20260509204402 17 239 3.2 4.8 0.00 0.00 0.00 59 1011.9
20260509203859 17 214 3.2 6.4 0.00 0.00 0.00 57 1012.0
20260509203355 18 234 8.0 11.3 0.00 0.00 0.00 55 1011.9
20260509202852 18 245 1.6 9.7 0.00 0.00 0.00 55 1012.0
20260509202348 18 239 3.2 3.2 0.00 0.00 0.00 57 1011.9
20260509201843 18 236 4.8 9.7 0.00 0.00 0.00 53 1011.8
20260509201339 18 224 6.4 11.3 0.00 0.00 0.00 53 1011.9
20260509200836 18 227 1.6 6.4 0.00 0.00 0.00 55 1011.8
20260509200331 18 216 3.2 6.4 0.00 0.00 0.00 55 1012.0
20260509195828 18 251 6.4 11.3 0.00 0.00 0.00 56 1011.9
20260509195328 18 257 4.8 11.3 0.00 0.00 0.00 54 1011.9
20260509194827 18 227 9.7 11.3 0.00 0.00 0.00 56 1012.2
20260509194324 18 231 8.0 11.3 0.00 0.00 0.00 56 1012.0
20260509193821 18 199 3.2 6.4 0.00 0.00 0.00 58 1012.3
20260509193321 18 237 4.8 12.9 0.00 0.00 0.00 53 1012.0
20260509192817 17 255 3.2 3.2 0.00 0.00 0.00 57 1012.0
20260509192313 17 262 1.6 9.7 0.00 0.00 0.00 57 1012.0
20260509191808 18 224 3.2 6.4 0.00 0.00 0.00 55 1012.2
20260509191305 18 201 6.4 9.7 0.00 0.00 0.00 55 1011.9
20260509190800 18 243 3.2 6.4 0.00 0.00 0.00 54 1012.0
20260509190258 18 211 3.2 4.8 0.00 0.00 0.00 59 1011.9
20260509185755 18 251 6.4 9.7 0.00 0.00 0.00 59 1012.2
20260509185251 18 241 1.6 4.8 0.00 0.00 0.00 58 1011.9
20260509184749 18 241 3.2 12.9 0.00 0.00 0.00 56 1011.9
20260509184246 17 272 3.2 4.8 0.00 0.00 0.00 57 1012.2
20260509183742 18 234 9.7 14.5 0.00 0.00 0.00 57 1011.9
20260509183238 17 281 8.0 11.3 0.00 0.00 0.00 58 1012.0
20260509182733 17 224 9.7 11.3 0.00 0.00 0.00 60 1012.3
20260509182231 17 228 3.2 9.7 0.00 0.00 0.00 57 1012.2
20260509181728 17 241 9.7 14.5 0.00 0.00 0.00 57 1012.0
20260509181226 17 222 6.4 11.3 0.00 0.00 0.00 59 1011.9
20260509180723 17 195 4.8 9.7 0.00 0.00 0.00 58 1012.0
20260509180219 18 245 6.4 12.9 0.00 0.00 0.00 62 1012.3
20260509175715 18 261 4.8 4.8 0.00 0.00 0.00 60 1012.3
20260509175212 18 208 4.8 6.4 0.00 0.00 0.00 62 1012.2
20260509174707 17 250 1.6 3.2 0.00 0.00 0.00 63 1012.3
20260509174203 17 235 8.0 9.7 0.00 0.00 0.00 61 1012.2
20260509173659 16 264 4.8 11.3 0.00 0.00 0.00 62 1012.4
20260509173155 17 233 6.4 11.3 0.00 0.00 0.00 62 1012.5
20260509172651 16 228 4.8 9.7 0.00 0.00 0.00 62 1012.2
20260509172148 17 260 4.8 9.7 0.00 0.00 0.00 58 1012.3
20260509171643 17 142 3.2 6.4 0.00 0.00 0.00 60 1012.5
20260509171140 18 267 9.7 11.3 0.00 0.00 0.00 57 1012.4
20260509170637 18 254 3.2 9.7 0.00 0.00 0.00 62 1012.5
20260509170133 17 295 6.4 9.7 0.00 0.00 0.00 60 1012.6
20260509165631 17 239 4.8 9.7 0.00 0.00 0.00 60 1012.6
20260509165127 17 93 0.0 4.8 0.00 0.00 0.00 58 1012.6
20260509164623 17 205 3.2 9.7 0.00 0.00 0.00 59 1012.7
20260509164119 17 161 3.2 6.4 0.00 0.00 0.00 59 1012.5
20260509163617 16 231 1.6 4.8 0.00 0.00 0.00 62 1012.6
20260509163112 16 184 4.8 6.4 0.00 0.00 0.00 58 1012.6
20260509162610 16 226 3.2 4.8 0.00 0.00 0.00 59 1012.6
20260509162106 16 272 6.4 9.7 0.00 0.00 0.00 60 1012.6
20260509161602 16 228 4.8 6.4 0.00 0.00 0.00 61 1012.8
20260509161102 16 256 3.2 9.7 0.00 0.00 0.00 60 1012.7
20260509160558 16 217 1.6 4.8 0.00 0.00 0.00 63 1012.5
20260509160054 16 255 3.2 6.4 0.00 0.00 0.00 59 1012.4
20260509155550 15 311 1.6 6.4 0.00 0.00 0.00 61 1012.6
20260509155047 15 266 3.2 4.8 0.00 0.00 0.00 59 1012.5
20260509154543 15 250 3.2 3.2 0.00 0.00 0.00 61 1012.5
20260509154041 15 257 1.6 3.2 0.00 0.00 0.00 64 1012.6
20260509153537 15 227 1.6 3.2 0.00 0.00 0.00 61 1012.6
20260509153034 15 218 1.6 3.2 0.00 0.00 0.00 62 1012.4
20260509152530 15 209 1.6 1.6 0.00 0.00 0.00 60 1012.7
20260509152027 15 243 3.2 4.8 0.00 0.00 0.00 58 1012.8
20260509151523 15 262 4.8 4.8 0.00 0.00 0.00 57 1012.7
20260509151021 15 234 3.2 3.2 0.00 0.00 0.00 58 1013.0
20260509150518 15 245 1.6 3.2 0.00 0.00 0.00 63 1012.9
20260509150017 15 228 0.0 3.2 0.00 0.00 0.00 60 1013.0
20260509145512 15 236 1.6 4.8 0.00 0.00 0.00 57 1013.0
20260509145007 15 215 3.2 6.4 0.00 0.00 0.00 57 1013.2
20260509144505 15 220 1.6 3.2 0.00 0.00 0.00 58 1013.2
20260509144002 15 243 4.8 6.4 0.00 0.00 0.00 57 1013.1
20260509143459 15 236 4.8 4.8 0.00 0.00 0.00 59 1013.0
20260509142955 16 233 3.2 6.4 0.00 0.00 0.00 61 1012.8
20260509142452 17 41 1.6 3.2 0.00 0.00 0.00 53 1012.7
20260509141947 17 219 0.0 4.8 0.00 0.00 0.00 55 1012.7
20260509141444 17 318 1.6 3.2 0.00 0.00 0.00 54 1012.7
20260509140941 17 334 0.0 3.2 0.00 0.00 0.00 56 1012.6
20260509140437 17 18 1.6 1.6 0.00 0.00 0.00 57 1012.5
20260509135936 16 282 1.6 4.8 0.00 0.00 0.00 61 1012.4
20260509135433 16 71 1.6 1.6 0.00 0.00 0.00 60 1012.8
20260509134930 16 68 1.6 3.2 0.00 0.00 0.00 61 1012.5
20260509134427 16 274 1.6 3.2 0.00 0.00 0.00 63 1012.6
20260509133925 15 176 0.0 3.2 0.00 0.00 0.00 66 1012.6
20260509133421 15 56 1.6 1.6 0.00 0.00 0.00 67 1012.8
20260509132920 15 286 1.6 1.6 0.00 0.00 0.00 67 1012.6
20260509132417 15 139 0.0 1.6 0.00 0.00 0.00 69 1012.8
20260509131914 15 303 1.6 3.2 0.00 0.00 0.00 70 1012.8
20260509131411 14 272 0.0 1.6 0.00 0.00 0.00 70 1012.9
20260509130908 15 248 0.0 1.6 0.00 0.00 0.00 69 1012.9
20260509130403 15 196 0.0 0.0 0.00 0.00 0.00 67 1012.8
20260509125900 14 207 0.0 0.0 0.00 0.00 0.00 63 1013.0
20260509125357 14 247 0.0 0.0 0.00 0.00 0.00 69 1012.7
20260509124853 14 310 0.0 0.0 0.00 0.00 0.00 66 1012.7
20260509124350 13 259 0.0 1.6 0.00 0.00 0.00 68 1012.8
20260509123848 13 117 0.0 1.6 0.00 0.00 0.00 64 1012.7
20260509123345 13 148 0.0 1.6 0.00 0.00 0.00 71 1012.9
20260509122840 13 113 0.0 1.6 0.00 0.00 0.00 69 1012.9
20260509122337 12 122 0.0 1.6 0.00 0.00 0.00 68 1012.8
20260509121834 12 134 1.6 1.6 0.00 0.00 0.00 68 1012.9
20260509121332 12 239 0.0 0.0 0.00 0.00 0.00 81 1012.8
20260509120830 11 241 0.0 0.0 0.00 0.00 0.00 78 1012.8
20260509120327 12 140 1.6 3.2 0.00 0.00 0.00 78 1012.8
20260509115825 11 128 4.8 6.4 0.00 0.00 0.00 69 1012.7
20260509115322 11 112 0.0 1.6 0.00 0.00 0.00 76 1012.8
20260509114820 10 106 1.6 3.2 0.00 0.00 0.00 80 1012.8
20260509114318 10 210 0.0 1.6 0.00 0.00 0.00 83 1012.9
20260509113818 10 91 0.0 0.0 0.00 0.00 0.00 84 1013.0
20260509113314 10 91 1.6 3.2 0.00 0.00 0.00 83 1013.0
20260509112810 10 84 1.6 1.6 0.00 0.00 0.00 80 1013.0
20260509112308 10 265 0.0 1.6 0.00 0.00 0.00 81 1012.9
20260509111805 10 86 1.6 1.6 0.00 0.00 0.00 80 1012.8
20260509111301 10 218 0.0 1.6 0.00 0.00 0.00 81 1012.9
20260509110759 10 81 1.6 1.6 0.00 0.00 0.00 78 1012.8
20260509110255 10 67 1.6 1.6 0.00 0.00 0.00 76 1012.8
20260509105754 10 228 1.6 1.6 0.00 0.00 0.00 76 1012.8
20260509105251 10 83 1.6 3.2 0.00 0.00 0.00 71 1012.9
20260509104747 10 83 0.0 0.0 0.00 0.00 0.00 72 1012.7
20260509104244 10 83 1.6 3.2 0.00 0.00 0.00 69 1012.9
20260509103743 10 82 0.0 0.0 0.00 0.00 0.00 73 1013.0
20260509103239 10 82 0.0 1.6 0.00 0.00 0.00 67 1012.8
20260509102738 10 82 0.0 0.0 0.00 0.00 0.00 71 1012.9
20260509102234 10 82 0.0 1.6 0.00 0.00 0.00 70 1012.7
20260509101731 10 82 1.6 1.6 0.00 0.00 0.00 72 1012.7
20260509101227 10 70 0.0 0.0 0.00 0.00 0.00 74 1012.7
20260509100725 10 70 0.0 1.6 0.00 0.00 0.00 70 1012.7
20260509100222 10 39 1.6 3.2 0.00 0.00 0.00 67 1012.9
20260509095718 10 11 0.0 0.0 0.00 0.00 0.00 76 1012.8
20260509095216 11 337 0.0 1.6 0.00 0.00 0.00 67 1012.8
20260509094713 11 66 1.6 3.2 0.00 0.00 0.00 63 1012.6
20260509094209 11 37 1.6 1.6 0.00 0.00 0.00 62 1012.9
20260509093708 11 90 1.6 1.6 0.00 0.00 0.00 68 1012.9
20260509093204 11 79 0.0 0.0 0.00 0.00 0.00 62 1012.5
20260509092702 11 78 1.6 1.6 0.00 0.00 0.00 64 1012.6
20260509092200 11 123 0.0 0.0 0.00 0.00 0.00 62 1012.8
20260509091659 11 123 0.0 0.0 0.00 0.00 0.00 62 1012.7
20260509091154 11 109 0.0 0.0 0.00 0.00 0.00 63 1012.7
20260509090652 11 132 0.0 0.0 0.00 0.00 0.00 64 1012.7
20260509090149 12 110 0.0 1.6 0.00 0.00 0.00 63 1012.5
20260509085647 12 119 0.0 0.0 0.00 0.00 0.00 62 1012.7
20260509085143 12 90 0.0 1.6 0.00 0.00 0.00 61 1012.7
20260509084640 12 126 0.0 1.6 0.00 0.00 0.00 61 1012.7
20260509084137 12 121 0.0 1.6 0.00 0.00 0.00 60 1012.9
20260509083634 11 131 0.0 1.6 0.00 0.00 0.00 64 1012.8